owner,sensor,date,latitude,longitude,vertical_datum,direction_of_sea_water_velocity,sea_water_speed,upward_sea_water_velocity,qcFlag 
TABS,ioos:station:wmo:42048:1,2011-05-01T00:00:00Z,27.9396,-96.8429,2.0,341.9279306,2.997899264,-99999.0,'11133222,11111222,99999999' 
TABS,ioos:station:wmo:42048:1,2011-05-01T00:30:00Z,27.9396,-96.8429,2.0,334.8448968,1.999649969,-99999.0,'11133222,11111222,99999999' 
TABS,ioos:station:wmo:42048:1,2011-05-01T01:00:00Z,27.9396,-96.8429,2.0,335.0352424,4.004122875,-99999.0,'11133222,11111222,99999999' 
TABS,ioos:station:wmo:42048:1,2011-05-01T01:30:00Z,27.9396,-96.8429,2.0,304.9219571,4.000312488,-99999.0,'11133222,11111222,99999999' 
TABS,ioos:station:wmo:42048:1,2011-05-01T02:00:00Z,27.9396,-96.8429,2.0,297.078109,3.998249617,-99999.0,'11133222,11111222,99999999' 
TABS,ioos:station:wmo:42048:1,2011-05-01T02:30:00Z,27.9396,-96.8429,2.0,277.9864099,8.997255137,-99999.0,'11133222,11111222,99999999' 
TABS,ioos:station:wmo:42048:1,2011-05-01T03:00:00Z,27.9396,-96.8429,2.0,295.9890574,12.00382023,-99999.0,'11111222,11111222,99999999' 
TABS,ioos:station:wmo:42048:1,2011-05-01T03:30:00Z,27.9396,-96.8429,2.0,300.0010785,9.999779998,-99999.0,'11133222,11111222,99999999' 
TABS,ioos:station:wmo:42048:1,2011-05-01T04:00:00Z,27.9396,-96.8429,2.0,281.0013323,12.00052082,-99999.0,'11111222,11111222,99999999' 
TABS,ioos:station:wmo:42048:1,2011-05-01T04:30:00Z,27.9396,-96.8429,2.0,278.9844834,12.99948076,-99999.0,'11111222,11111222,99999999' 
TABS,ioos:station:wmo:42048:1,2011-05-01T05:00:00Z,27.9396,-96.8429,2.0,284.0167752,13.99673176,-99999.0,'11111222,11111222,99999999' 
TABS,ioos:station:wmo:42048:1,2011-05-01T05:30:00Z,27.9396,-96.8429,2.0,276.0243999,10.00524862,-99999.0,'11111222,11111222,99999999' 
TABS,ioos:station:wmo:42048:1,2011-05-01T06:00:00Z,27.9396,-96.8429,2.0,293.9701258,7.9999125,-99999.0,'11133222,11111222,99999999' 
TABS,ioos:station:wmo:42048:1,2011-05-01T06:30:00Z,27.9396,-96.8429,2.0,315.0003157,4.002224382,-99999.0,'11133222,11111222,99999999' 
TABS,ioos:station:wmo:42048:1,2011-05-01T07:00:00Z,27.9396,-96.8429,2.0,334.8448968,1.999649969,-99999.0,'11133222,11111222,99999999' 
TABS,ioos:station:wmo:42048:1,2011-05-01T07:30:00Z,27.9396,-96.8429,2.0,0.000210459,3.0,-99999.0,'11133222,11111222,99999999' 
TABS,ioos:station:wmo:42048:1,2011-05-01T08:00:00Z,27.9396,-96.8429,2.0,349.9723251,4.996328652,-99999.0,'11133222,11111222,99999999' 
TABS,ioos:station:wmo:42048:1,2011-05-01T08:30:00Z,27.9396,-96.8429,2.0,290.0650055,3.002215848,-99999.0,'11133222,11111222,99999999' 
TABS,ioos:station:wmo:42048:1,2011-05-01T09:00:00Z,27.9396,-96.8429,2.0,224.9996843,1.004091629,-99999.0,'11133222,11111222,99999999' 
TABS,ioos:station:wmo:42048:1,2011-05-01T09:30:00Z,27.9396,-96.8429,2.0,0.0,0.0,-99999.0,'11133222,11111222,99999999' 
TABS,ioos:station:wmo:42048:1,2011-05-01T10:00:00Z,27.9396,-96.8429,2.0,20.06479502,3.002215848,-99999.0,'11133222,11111222,99999999' 
TABS,ioos:station:wmo:42048:1,2011-05-01T10:30:00Z,27.9396,-96.8429,2.0,134.9998948,2.998132752,-99999.0,'11133222,11111222,99999999' 
TABS,ioos:station:wmo:42048:1,2011-05-01T11:00:00Z,27.9396,-96.8429,2.0,99.04497546,6.997006503,-99999.0,'11133222,11111222,99999999' 
TABS,ioos:station:wmo:42048:1,2011-05-01T11:30:00Z,27.9396,-96.8429,2.0,90.0,8.0,-99999.0,'11133222,11111222,99999999' 
TABS,ioos:station:wmo:42048:1,2011-05-01T12:00:00Z,27.9396,-96.8429,2.0,119.9934969,8.001556099,-99999.0,'11133222,11111222,99999999' 
TABS,ioos:station:wmo:42048:1,2011-05-01T12:30:00Z,27.9396,-96.8429,2.0,131.9605023,8.001562347,-99999.0,'11133222,11111222,99999999' 
TABS,ioos:station:wmo:42048:1,2011-05-01T13:00:00Z,27.9396,-96.8429,2.0,117.0203845,9.002694041,-99999.0,'11133222,11111222,99999999' 
TABS,ioos:station:wmo:42048:1,2011-05-01T13:30:00Z,27.9396,-96.8429,2.0,117.0203845,9.002694041,-99999.0,'11133222,11111222,99999999' 
TABS,ioos:station:wmo:42048:1,2011-05-01T14:00:00Z,27.9396,-96.8429,2.0,146.9459511,3.996861269,-99999.0,'11133222,11111222,99999999' 
TABS,ioos:station:wmo:42048:1,2011-05-01T14:30:00Z,27.9396,-96.8429,2.0,165.0103944,6.998121176,-99999.0,'11133222,11111222,99999999' 
TABS,ioos:station:wmo:42048:1,2011-05-01T15:00:00Z,27.9396,-96.8429,2.0,190.9538266,5.999308293,-99999.0,'11133222,11111222,99999999' 
TABS,ioos:station:wmo:42048:1,2011-05-01T15:30:00Z,27.9396,-96.8429,2.0,200.0045975,9.003221646,-99999.0,'11133222,11111222,99999999' 
TABS,ioos:station:wmo:42048:1,2011-05-01T16:00:00Z,27.9396,-96.8429,2.0,209.9932864,8.001556099,-99999.0,'11133222,11111222,99999999' 
TABS,ioos:station:wmo:42048:1,2011-05-01T16:30:00Z,27.9396,-96.8429,2.0,218.0153611,10.0019998,-99999.0,'11111222,11111222,99999999' 
TABS,ioos:station:wmo:42048:1,2011-05-01T17:00:00Z,27.9396,-96.8429,2.0,230.0045228,11.99584095,-99999.0,'11111222,11111222,99999999' 
TABS,ioos:station:wmo:42048:1,2011-05-01T17:30:00Z,27.9396,-96.8429,2.0,242.0249146,9.998249847,-99999.0,'11133222,11111222,99999999' 
TABS,ioos:station:wmo:42048:1,2011-05-01T18:00:00Z,27.9396,-96.8429,2.0,221.9821718,8.999805553,-99999.0,'11133222,11111222,99999999' 
TABS,ioos:station:wmo:42048:1,2011-05-01T18:30:00Z,27.9396,-96.8429,2.0,257.0356747,6.998378384,-99999.0,'11133222,11111222,99999999' 
TABS,ioos:station:wmo:42048:1,2011-05-01T19:00:00Z,27.9396,-96.8429,2.0,242.0249146,9.998249847,-99999.0,'11133222,11111222,99999999' 
TABS,ioos:station:wmo:42048:1,2011-05-01T19:30:00Z,27.9396,-96.8429,2.0,224.9996843,5.996265504,-99999.0,'11133222,11111222,99999999' 
TABS,ioos:station:wmo:42048:1,2011-05-01T20:00:00Z,27.9396,-96.8429,2.0,244.9728502,6.996942189,-99999.0,'11133222,11111222,99999999' 
TABS,ioos:station:wmo:42048:1,2011-05-01T20:30:00Z,27.9396,-96.8429,2.0,259.9716938,4.996328652,-99999.0,'11133222,11111222,99999999' 
TABS,ioos:station:wmo:42048:1,2011-05-01T21:00:00Z,27.9396,-96.8429,2.0,251.9272992,2.997899264,-99999.0,'11133222,11111222,99999999' 
TABS,ioos:station:wmo:42048:1,2011-05-01T21:30:00Z,27.9396,-96.8429,2.0,334.8448968,1.999649969,-99999.0,'11133222,11111222,99999999' 
TABS,ioos:station:wmo:42048:1,2011-05-01T22:00:00Z,27.9396,-96.8429,2.0,315.0003157,2.998132752,-99999.0,'11133222,11111222,99999999' 
TABS,ioos:station:wmo:42048:1,2011-05-01T22:30:00Z,27.9396,-96.8429,2.0,257.0049927,4.002499219,-99999.0,'11133222,11111222,99999999' 
TABS,ioos:station:wmo:42048:1,2011-05-01T23:00:00Z,27.9396,-96.8429,2.0,334.8448968,1.999649969,-99999.0,'11133222,11111222,99999999' 
TABS,ioos:station:wmo:42048:1,2011-05-01T23:30:00Z,27.9396,-96.8429,2.0,244.8442655,1.999649969,-99999.0,'11133222,11111222,99999999' 
TABS,ioos:station:wmo:42048:1,2011-05-02T00:00:00Z,27.9396,-96.8429,2.0,297.078109,1.999124809,-99999.0,'11133222,11111222,99999999' 
TABS,ioos:station:wmo:42048:1,2011-05-02T00:30:00Z,27.9396,-96.8429,2.0,297.078109,1.999124809,-99999.0,'11133222,11111222,99999999' 
TABS,ioos:station:wmo:42048:1,2011-05-02T01:00:00Z,27.9396,-96.8429,2.0,0.0,0.0,-99999.0,'11133222,11111222,99999999' 
TABS,ioos:station:wmo:42048:1,2011-05-02T01:30:00Z,27.9396,-96.8429,2.0,334.8448968,1.999649969,-99999.0,'11133222,11111222,99999999' 
TABS,ioos:station:wmo:42048:1,2011-05-02T02:00:00Z,27.9396,-96.8429,2.0,334.8448968,1.999649969,-99999.0,'11133222,11111222,99999999' 
TABS,ioos:station:wmo:42048:1,2011-05-02T02:30:00Z,27.9396,-96.8429,2.0,315.0003157,1.004091629,-99999.0,'11133222,11111222,99999999' 
TABS,ioos:station:wmo:42048:1,2011-05-02T03:00:00Z,27.9396,-96.8429,2.0,90.0,1.0,-99999.0,'11133222,11111222,99999999' 
TABS,ioos:station:wmo:42048:1,2011-05-02T03:30:00Z,27.9396,-96.8429,2.0,315.0003157,1.004091629,-99999.0,'11133222,11111222,99999999' 
TABS,ioos:station:wmo:42048:1,2011-05-02T04:00:00Z,27.9396,-96.8429,2.0,315.0003157,2.998132752,-99999.0,'11133222,11111222,99999999' 
TABS,ioos:station:wmo:42048:1,2011-05-02T04:30:00Z,27.9396,-96.8429,2.0,297.078109,1.999124809,-99999.0,'11133222,11111222,99999999' 
TABS,ioos:station:wmo:42048:1,2011-05-02T05:00:00Z,27.9396,-96.8429,2.0,0.000210459,1.0,-99999.0,'11133222,11111222,99999999' 
TABS,ioos:station:wmo:42048:1,2011-05-02T05:30:00Z,27.9396,-96.8429,2.0,270.0004209,1.0,-99999.0,'11133222,11111222,99999999' 
TABS,ioos:station:wmo:42048:1,2011-05-02T06:00:00Z,27.9396,-96.8429,2.0,234.0227929,5.004607877,-99999.0,'11133222,11111222,99999999' 
TABS,ioos:station:wmo:42048:1,2011-05-02T06:30:00Z,27.9396,-96.8429,2.0,270.0004209,4.0,-99999.0,'11133222,11111222,99999999' 
TABS,ioos:station:wmo:42048:1,2011-05-02T07:00:00Z,27.9396,-96.8429,2.0,297.078109,1.999124809,-99999.0,'11133222,11111222,99999999' 
TABS,ioos:station:wmo:42048:1,2011-05-02T07:30:00Z,27.9396,-96.8429,2.0,245.034611,4.004122875,-99999.0,'11133222,11111222,99999999' 
TABS,ioos:station:wmo:42048:1,2011-05-02T08:00:00Z,27.9396,-96.8429,2.0,240.0180098,6.003332408,-99999.0,'11133222,11111222,99999999' 
TABS,ioos:station:wmo:42048:1,2011-05-02T09:00:00Z,27.9396,-96.8429,2.0,245.01980321597,5.6594169310981,-99999.0,'1111122,1111122,1199999999' 
TABS,ioos:station:wmo:42048:1,2011-05-02T09:30:00Z,27.9396,-96.8429,2.0,248.60459122602,6.5514960123624,-99999.0,'1111122,1111122,1199999999' 
TABS,ioos:station:wmo:42048:1,2011-05-02T10:00:00Z,27.9396,-96.8429,2.0,236.05494626461,6.2321184199275,-99999.0,'1111122,1111122,1199999999' 
TABS,ioos:station:wmo:42048:1,2011-05-02T10:30:00Z,27.9396,-96.8429,2.0,247.18440785464,9.2323615613775,-99999.0,'1111122,1111122,1199999999' 
TABS,ioos:station:wmo:42048:1,2011-05-02T11:00:00Z,27.9396,-96.8429,2.0,283.29593579953,7.6962978112856,-99999.0,'1111122,1111122,1199999999' 
TABS,ioos:station:wmo:42048:1,2011-05-02T16:00:00Z,27.9396,-96.8429,2.0,258.0149763,3.997123966,-99999.0,'11133222,11111222,99999999' 
TABS,ioos:station:wmo:42048:1,2011-05-03T00:00:00Z,27.9396,-96.8429,2.0,221.9996826,29.99414943,-99999.0,'11111222,11111222,99999999' 
TABS,ioos:station:wmo:42048:1,2011-05-03T00:30:00Z,27.9396,-96.8429,2.0,223.9932251,30.99727246,-99999.0,'11111222,11111222,99999999' 
TABS,ioos:station:wmo:42048:1,2011-05-03T01:00:00Z,27.9396,-96.8429,2.0,227.0033139,35.99960278,-99999.0,'11111222,11111222,99999999' 
TABS,ioos:station:wmo:42048:1,2011-05-03T01:30:00Z,27.9396,-96.8429,2.0,224.9996843,29.00552016,-99999.0,'11111222,11111222,99999999' 
TABS,ioos:station:wmo:42048:1,2011-05-03T02:00:00Z,27.9396,-96.8429,2.0,221.9942476,28.99590488,-99999.0,'11111222,11111222,99999999' 
TABS,ioos:station:wmo:42048:1,2011-05-03T02:30:00Z,27.9396,-96.8429,2.0,223.9928778,32.99869694,-99999.0,'11111222,11111222,99999999' 
TABS,ioos:station:wmo:42048:1,2011-05-03T03:00:00Z,27.9396,-96.8429,2.0,223.9932251,30.99727246,-99999.0,'11111222,11111222,99999999' 
TABS,ioos:station:wmo:42048:1,2011-05-03T03:30:00Z,27.9396,-96.8429,2.0,223.9928778,32.99869694,-99999.0,'11111222,11111222,99999999' 
TABS,ioos:station:wmo:42048:1,2011-05-03T04:00:00Z,27.9396,-96.8429,2.0,219.0024719,36.0049441,-99999.0,'11111222,11111222,99999999' 
TABS,ioos:station:wmo:42048:1,2011-05-03T04:30:00Z,27.9396,-96.8429,2.0,222.0065593,39.00064615,-99999.0,'11111222,11111222,99999999' 
TABS,ioos:station:wmo:42048:1,2011-05-03T05:00:00Z,27.9396,-96.8429,2.0,222.50672977118,37.873136917874,-99999.0,'1111122,1111122,1199999999' 
TABS,ioos:station:wmo:42048:1,2011-05-03T09:30:00Z,27.9396,-96.8429,2.0,224.94123511854,34.471473713783,-99999.0,'1111122,1111122,1199999999' 
TABS,ioos:station:wmo:42048:1,2011-05-03T10:00:00Z,27.9396,-96.8429,2.0,221.48709767699,33.466607237663,-99999.0,'1111122,1111122,1199999999' 
TABS,ioos:station:wmo:42048:1,2011-05-03T10:30:00Z,27.9396,-96.8429,2.0,228.50602721426,33.069638643324,-99999.0,'1111122,1111122,1199999999' 
TABS,ioos:station:wmo:42048:1,2011-05-03T11:00:00Z,27.9396,-96.8429,2.0,224.17310801873,34.298250684255,-99999.0,'1111122,1111122,1199999999' 
TABS,ioos:station:wmo:42048:1,2011-05-03T11:30:00Z,27.9396,-96.8429,2.0,229.42283266291,28.333289607809,-99999.0,'1111122,1111122,1199999999' 
TABS,ioos:station:wmo:42048:1,2011-05-03T12:00:00Z,27.9396,-96.8429,2.0,223.61358761894,33.024483341909,-99999.0,'1111122,1111122,1199999999' 
TABS,ioos:station:wmo:42048:1,2011-05-03T12:30:00Z,27.9396,-96.8429,2.0,219.85531995492,29.492026040949,-99999.0,'1111122,1111122,1199999999' 
TABS,ioos:station:wmo:42048:1,2011-05-03T13:00:00Z,27.9396,-96.8429,2.0,220.15599962492,28.470813125023,-99999.0,'1111122,1111122,1199999999' 
TABS,ioos:station:wmo:42048:1,2011-05-03T13:30:00Z,27.9396,-96.8429,2.0,227.2676706278,28.235672472955,-99999.0,'1111122,1111122,1199999999' 
TABS,ioos:station:wmo:42048:1,2011-05-03T14:00:00Z,27.9396,-96.8429,2.0,219.4368744683,31.437546023823,-99999.0,'1111122,1111122,1199999999' 
TABS,ioos:station:wmo:42048:1,2011-05-03T14:30:00Z,27.9396,-96.8429,2.0,216.28079094233,27.427449753851,-99999.0,'1111122,1111122,1199999999' 
TABS,ioos:station:wmo:42048:1,2011-05-03T15:00:00Z,27.9396,-96.8429,2.0,219.09482398156,28.797709978399,-99999.0,'1111122,1111122,1199999999' 
TABS,ioos:station:wmo:42048:1,2011-05-03T15:30:00Z,27.9396,-96.8429,2.0,215.72502379313,30.930174587286,-99999.0,'1111122,1111122,1199999999' 
TABS,ioos:station:wmo:42048:1,2011-05-03T16:00:00Z,27.9396,-96.8429,2.0,217.77114494774,32.424011164568,-99999.0,'1111122,1111122,1199999999' 
TABS,ioos:station:wmo:42048:1,2011-05-03T18:30:00Z,27.9396,-96.8429,2.0,214.26345106053,32.149259711539,-99999.0,'1111122,1111122,1199999999' 
TABS,ioos:station:wmo:42048:1,2011-05-03T19:00:00Z,27.9396,-96.8429,2.0,212.37406466272,32.122840783467,-99999.0,'1111122,1111122,1199999999' 
TABS,ioos:station:wmo:42048:1,2011-05-03T19:30:00Z,27.9396,-96.8429,2.0,216.31629944489,33.533565274214,-99999.0,'1111122,1111122,1199999999' 
TABS,ioos:station:wmo:42048:1,2011-05-03T20:00:00Z,27.9396,-96.8429,2.0,214.11193402659,36.161886012762,-99999.0,'1111122,1111122,1199999999' 
TABS,ioos:station:wmo:42048:1,2011-05-03T20:30:00Z,27.9396,-96.8429,2.0,218.40489706386,43.527619967097,-99999.0,'1111122,1111122,1199999999' 
TABS,ioos:station:wmo:42048:1,2011-05-03T21:00:00Z,27.9396,-96.8429,2.0,222.59644234925,50.751276831229,-99999.0,'1111122,1111122,1199999999' 
TABS,ioos:station:wmo:42048:1,2011-05-03T21:30:00Z,27.9396,-96.8429,2.0,230.35715654292,47.335425423249,-99999.0,'1111122,1111122,1199999999' 
TABS,ioos:station:wmo:42048:1,2011-05-03T22:00:00Z,27.9396,-96.8429,2.0,230.00698081354,46.180588995811,-99999.0,'1111122,1111122,1199999999' 
TABS,ioos:station:wmo:42048:1,2011-05-03T22:30:00Z,27.9396,-96.8429,2.0,231.82213966982,46.788190817769,-99999.0,'1111122,1111122,1199999999' 
TABS,ioos:station:wmo:42048:1,2011-05-03T23:00:00Z,27.9396,-96.8429,2.0,234.28395187042,48.169767489578,-99999.0,'1111122,1111122,1199999999' 
TABS,ioos:station:wmo:42048:1,2011-05-04T05:00:00Z,27.9396,-96.8429,2.0,224.0015344,40.99720112,-99999.0,'11111222,11111222,99999999' 
TABS,ioos:station:wmo:42048:1,2011-05-04T05:30:00Z,27.9396,-96.8429,2.0,224.0015344,40.99720112,-99999.0,'11111222,11111222,99999999' 
TABS,ioos:station:wmo:42048:1,2011-05-04T06:00:00Z,27.9396,-96.8429,2.0,224.9996843,43.99618393,-99999.0,'11111222,11111222,99999999' 
TABS,ioos:station:wmo:42048:1,2011-05-04T06:30:00Z,27.9396,-96.8429,2.0,235.9984981,46.99489334,-99999.0,'11111222,11111222,99999999' 
TABS,ioos:station:wmo:42048:1,2011-05-04T07:00:00Z,27.9396,-96.8429,2.0,236.0062123,43.99943636,-99999.0,'11111222,11111222,99999999' 
TABS,ioos:station:wmo:42048:1,2011-05-04T07:30:00Z,27.9396,-96.8429,2.0,238.9927543,40.99846339,-99999.0,'11111222,11111222,99999999' 
TABS,ioos:station:wmo:42048:1,2011-05-04T08:00:00Z,27.9396,-96.8429,2.0,238.9927543,40.99846339,-99999.0,'11111222,11111222,99999999' 
TABS,ioos:station:wmo:42048:1,2011-05-04T08:30:00Z,27.9396,-96.8429,2.0,235.9959312,37.99753281,-99999.0,'11111222,11111222,99999999' 
TABS,ioos:station:wmo:42048:1,2011-05-04T09:00:00Z,27.9396,-96.8429,2.0,235.9958345,38.99878203,-99999.0,'11111222,11111222,99999999' 
TABS,ioos:station:wmo:42048:1,2011-05-04T09:30:00Z,27.9396,-96.8429,2.0,232.9966014,37.00209994,-99999.0,'11111222,11111222,99999999' 
TABS,ioos:station:wmo:42048:1,2011-05-04T10:00:00Z,27.9396,-96.8429,2.0,233.0001056,38.00209731,-99999.0,'11111222,11111222,99999999' 
TABS,ioos:station:wmo:42048:1,2011-05-04T10:30:00Z,27.9396,-96.8429,2.0,231.0027585,43.00162788,-99999.0,'11111222,11111222,99999999' 
TABS,ioos:station:wmo:42048:1,2011-05-04T11:00:00Z,27.9396,-96.8429,2.0,230.9993654,40.99633642,-99999.0,'11111222,11111222,99999999' 
TABS,ioos:station:wmo:42048:1,2011-05-04T11:30:00Z,27.9396,-96.8429,2.0,233.0011832,40.99410323,-99999.0,'11111222,11111222,99999999' 
TABS,ioos:station:wmo:42048:1,2011-05-04T12:00:00Z,27.9396,-96.8429,2.0,227.998626,40.006322,-99999.0,'11111222,11111222,99999999' 
TABS,ioos:station:wmo:42048:1,2011-05-04T12:30:00Z,27.9396,-96.8429,2.0,232.2264199793,37.662684450262,-99999.0,'1111122,1111122,1199999999' 
TABS,ioos:station:wmo:42048:1,2011-05-04T13:00:00Z,27.9396,-96.8429,2.0,228.11326880554,39.840627505098,-99999.0,'1111122,1111122,1199999999' 
TABS,ioos:station:wmo:42048:1,2011-05-04T13:30:00Z,27.9396,-96.8429,2.0,234.22502929719,43.225892703332,-99999.0,'1111122,1111122,1199999999' 
TABS,ioos:station:wmo:42048:1,2011-05-04T14:00:00Z,27.9396,-96.8429,2.0,232.16125339739,40.215749402442,-99999.0,'1111122,1111122,1199999999' 
TABS,ioos:station:wmo:42048:1,2011-05-04T14:30:00Z,27.9396,-96.8429,2.0,233.89816417194,40.731659676473,-99999.0,'1111122,1111122,1199999999' 
TABS,ioos:station:wmo:42048:1,2011-05-04T15:00:00Z,27.9396,-96.8429,2.0,227.89425339202,43.832892900195,-99999.0,'1111122,1111122,1199999999' 
TABS,ioos:station:wmo:42048:1,2011-05-04T15:30:00Z,27.9396,-96.8429,2.0,230.25652877992,42.527474648749,-99999.0,'1111122,1111122,1199999999' 
TABS,ioos:station:wmo:42048:1,2011-05-04T16:00:00Z,27.9396,-96.8429,2.0,230.641403726,46.611964129395,-99999.0,'1111122,1111122,1199999999' 
TABS,ioos:station:wmo:42048:1,2011-05-04T16:30:00Z,27.9396,-96.8429,2.0,227.85586595573,46.408487370308,-99999.0,'1111122,1111122,1199999999' 
TABS,ioos:station:wmo:42048:1,2011-05-04T17:00:00Z,27.9396,-96.8429,2.0,235.63490792279,47.31921068657,-99999.0,'1111122,1111122,1199999999' 
TABS,ioos:station:wmo:42048:1,2011-05-04T17:30:00Z,27.9396,-96.8429,2.0,233.18218264842,46.206019088426,-99999.0,'1111122,1111122,1199999999' 
TABS,ioos:station:wmo:42048:1,2011-05-04T18:00:00Z,27.9396,-96.8429,2.0,231.0942303818,52.751297614372,-99999.0,'1111122,1111122,1199999999' 
TABS,ioos:station:wmo:42048:1,2011-05-04T18:30:00Z,27.9396,-96.8429,2.0,228.12994505792,52.708584689783,-99999.0,'1111122,1111122,1199999999' 
TABS,ioos:station:wmo:42048:1,2011-05-04T19:00:00Z,27.9396,-96.8429,2.0,232.32863712179,54.04728762852,-99999.0,'1111122,1111122,1199999999' 
TABS,ioos:station:wmo:42048:1,2011-05-04T19:30:00Z,27.9396,-96.8429,2.0,234.25081093638,55.422601887678,-99999.0,'1111122,1111122,1199999999' 
TABS,ioos:station:wmo:42048:1,2011-05-04T20:00:00Z,27.9396,-96.8429,2.0,231.22344044645,55.182551590154,-99999.0,'1111122,1111122,1199999999' 
TABS,ioos:station:wmo:42048:1,2011-05-04T20:30:00Z,27.9396,-96.8429,2.0,232.42582334531,56.298253081246,-99999.0,'1111122,1111122,1199999999' 
TABS,ioos:station:wmo:42048:1,2011-05-04T21:00:00Z,27.9396,-96.8429,2.0,231.49656363437,54.934325334894,-99999.0,'1111122,1111122,1199999999' 
TABS,ioos:station:wmo:42048:1,2011-05-04T21:30:00Z,27.9396,-96.8429,2.0,228.56222026025,53.716621263814,-99999.0,'1111122,1111122,1199999999' 
TABS,ioos:station:wmo:42048:1,2011-05-04T22:00:00Z,27.9396,-96.8429,2.0,220.47977673704,51.141470452071,-99999.0,'1111122,1111122,1199999999' 
TABS,ioos:station:wmo:42048:1,2011-05-04T22:30:00Z,27.9396,-96.8429,2.0,223.24865860911,58.073523227027,-99999.0,'1111122,1111122,1199999999' 
TABS,ioos:station:wmo:42048:1,2011-05-04T23:00:00Z,27.9396,-96.8429,2.0,215.96089484569,48.158060592179,-99999.0,'1111122,1111122,1199999999' 
TABS,ioos:station:wmo:42048:1,2011-05-04T23:30:00Z,27.9396,-96.8429,2.0,216.62297195304,52.904491302724,-99999.0,'1111122,1111122,1199999999' 
TABS,ioos:station:wmo:42048:1,2011-05-05T00:00:00Z,27.9396,-96.8429,2.0,213.15899255001,53.860929253031,-99999.0,'1111122,1111122,1199999999' 
TABS,ioos:station:wmo:42048:1,2011-05-05T00:30:00Z,27.9396,-96.8429,2.0,224.74447046741,57.078227022219,-99999.0,'1111122,1111122,1199999999' 
TABS,ioos:station:wmo:42048:1,2011-05-05T01:00:00Z,27.9396,-96.8429,2.0,224.40142018632,54.824980620152,-99999.0,'1111122,1111122,1199999999' 
TABS,ioos:station:wmo:42048:1,2011-05-05T01:30:00Z,27.9396,-96.8429,2.0,223.79911734898,53.645832084142,-99999.0,'1111122,1111122,1199999999' 
TABS,ioos:station:wmo:42048:1,2011-05-05T02:00:00Z,27.9396,-96.8429,2.0,227.2639534585,57.101016628428,-99999.0,'1111122,1111122,1199999999' 
TABS,ioos:station:wmo:42048:1,2011-05-05T02:30:00Z,27.9396,-96.8429,2.0,223.1945186,59.70944481,-99999.0,'11111222,11111222,99999999' 
TABS,ioos:station:wmo:42048:1,2011-05-05T03:00:00Z,27.9396,-96.8429,2.0,227.5512515,54.48002294,-99999.0,'11111222,11111222,99999999' 
TABS,ioos:station:wmo:42048:1,2011-05-05T03:30:00Z,27.9396,-96.8429,2.0,228.9056001,57.50822202,-99999.0,'11111222,11111222,99999999' 
TABS,ioos:station:wmo:42048:1,2011-05-05T04:00:00Z,27.9396,-96.8429,2.0,233.1374656,59.54400054,-99999.0,'11111222,11111222,99999999' 
TABS,ioos:station:wmo:42048:1,2011-05-05T04:30:00Z,27.9396,-96.8429,2.0,229.373345,54.61333262,-99999.0,'11111222,11111222,99999999' 
TABS,ioos:station:wmo:42048:1,2011-05-05T05:00:00Z,27.9396,-96.8429,2.0,229.4737589,51.93970447,-99999.0,'11111222,11111222,99999999' 
TABS,ioos:station:wmo:42048:1,2011-05-05T05:30:00Z,27.9396,-96.8429,2.0,230.606927,49.93439897,-99999.0,'11111222,11111222,99999999' 
TABS,ioos:station:wmo:42048:1,2011-05-05T06:00:00Z,27.9396,-96.8429,2.0,233.2625727,46.59412517,-99999.0,'11111222,11111222,99999999' 
TABS,ioos:station:wmo:42048:1,2011-05-05T06:30:00Z,27.9396,-96.8429,2.0,233.124783,45.97800017,-99999.0,'11111222,11111222,99999999' 
TABS,ioos:station:wmo:42048:1,2011-05-05T07:00:00Z,27.9396,-96.8429,2.0,236.7119216,46.60705955,-99999.0,'11111222,11111222,99999999' 
TABS,ioos:station:wmo:42048:1,2011-05-05T07:30:00Z,27.9396,-96.8429,2.0,232.5795687,45.40409343,-99999.0,'11111222,11111222,99999999' 
TABS,ioos:station:wmo:42048:1,2011-05-05T08:00:00Z,27.9396,-96.8429,2.0,233.1193517,44.00600073,-99999.0,'11111222,11111222,99999999' 
TABS,ioos:station:wmo:42048:1,2011-05-05T08:30:00Z,27.9396,-96.8429,2.0,227.9170739,39.73433024,-99999.0,'11111222,11111222,99999999' 
TABS,ioos:station:wmo:42048:1,2011-05-05T09:00:00Z,27.9396,-96.8429,2.0,228.7846408,38.88376139,-99999.0,'11111222,11111222,99999999' 
TABS,ioos:station:wmo:42048:1,2011-05-05T09:30:00Z,27.9396,-96.8429,2.0,231.6375345,38.477049,-99999.0,'11111222,11111222,99999999' 
TABS,ioos:station:wmo:42048:1,2011-05-05T10:00:00Z,27.9396,-96.8429,2.0,223.9346037,39.5623887,-99999.0,'11111222,11111222,99999999' 
TABS,ioos:station:wmo:42048:1,2011-05-05T10:30:00Z,27.9396,-96.8429,2.0,226.853508,37.81464928,-99999.0,'11111222,11111222,99999999' 
TABS,ioos:station:wmo:42048:1,2011-05-05T11:00:00Z,27.9396,-96.8429,2.0,223.045072,37.10934249,-99999.0,'11111222,11111222,99999999' 
TABS,ioos:station:wmo:42048:1,2011-05-05T11:30:00Z,27.9396,-96.8429,2.0,226.1341033,37.14452853,-99999.0,'11111222,11111222,99999999' 
TABS,ioos:station:wmo:42048:1,2011-05-05T12:00:00Z,27.9396,-96.8429,2.0,222.1797386,36.21944229,-99999.0,'11111222,11111222,99999999' 
TABS,ioos:station:wmo:42048:1,2011-05-05T12:30:00Z,27.9396,-96.8429,2.0,219.8264317,34.6621465,-99999.0,'11111222,11111222,99999999' 
TABS,ioos:station:wmo:42048:1,2011-05-05T13:00:00Z,27.9396,-96.8429,2.0,224.7256586,34.00515402,-99999.0,'11111222,11111222,99999999' 
TABS,ioos:station:wmo:42048:1,2011-05-05T13:30:00Z,27.9396,-96.8429,2.0,217.1219248,32.24431268,-99999.0,'11111222,11111222,99999999' 
TABS,ioos:station:wmo:42048:1,2011-05-05T14:00:00Z,27.9396,-96.8429,2.0,220.3301119,33.26665748,-99999.0,'11111222,11111222,99999999' 
TABS,ioos:station:wmo:42048:1,2011-05-05T14:30:00Z,27.9396,-96.8429,2.0,216.571286,30.73041653,-99999.0,'11111222,11111222,99999999' 